Date,TemperatureHighF,TemperatureAvgF,TemperatureLowF,DewpointHighF,DewpointAvgF,DewpointLowF,HumidityHigh,HumidityAvg,HumidityLow,PressureMaxIn,PressureMinIn,WindSpeedMaxMPH,WindSpeedAvgMPH,GustSpeedMaxMPH,PrecipitationSumIn
2013-1-1,24.0,20.5,18.0,17.0,15.8,15.0,91,82,72,0.00,40.00,4,2,9,0.01
2013-1-2,23.0,19.2,11.0,16.0,14.2,8.0,91,81,66,0.00,40.00,3,2,7,0.00
2013-1-3,21.0,14.4,4.0,14.0,10.4,1.0,88,83,73,0.00,40.00,4,2,7,0.00
2013-1-4,28.0,20.6,16.0,22.0,17.2,14.0,93,87,73,0.00,40.00,3,2,6,0.00
2013-1-5,31.0,25.5,17.0,25.0,22.6,15.0,95,89,74,0.00,40.00,4,2,8,0.02
2013-1-6,33.0,27.3,24.0,26.0,22.4,19.0,94,82,64,0.00,40.00,7,3,16,0.02
2013-1-7,36.0,30.3,26.0,31.0,27.4,22.0,96,89,72,0.00,40.00,7,3,16,0.01
2013-1-8,36.0,32.0,28.0,31.0,24.0,17.0,97,74,52,0.00,40.00,7,3,25,0.15
2013-1-9,42.0,36.2,30.0,35.0,31.6,25.0,99,85,51,0.00,40.00,8,4,23,0.19
2013-1-10,32.0,25.8,19.0,31.0,22.7,13.0,98,88,73,0.00,40.00,5,2,11,0.06
2013-1-11,22.0,15.7,-8.0,13.0,6.7,-14.0,87,69,46,0.00,40.00,5,3,11,0.01
2013-1-12,24.0,10.5,-3.0,14.0,5.4,-7.0,87,81,59,0.00,40.00,3,2,6,0.07
2013-1-13,21.0,10.8,-3.0,10.0,5.7,-8.0,88,80,55,0.00,40.00,4,2,9,0.03
2013-1-14,20.0,14.5,11.0,12.0,10.0,7.0,89,82,69,0.00,40.00,4,2,7,0.00
2013-1-17,41.0,20.2,1.0,24.0,14.9,-4.0,93,81,46,0.00,40.00,4,2,6,0.01
2013-1-18,45.0,22.5,11.0,29.0,16.4,9.0,92,80,37,0.00,40.00,3,2,6,0.01
2013-1-19,43.0,20.1,1.0,22.0,13.4,-3.0,92,78,34,0.00,40.00,3,2,5,0.00
2013-1-20,37.0,23.7,2.0,22.0,16.3,-2.0,93,75,49,0.00,40.00,3,1,6,0.00
2013-1-21,44.0,21.3,7.0,24.0,14.6,4.0,92,78,38,0.00,40.00,3,2,6,0.00
2013-1-22,35.0,17.3,-4.0,20.0,10.3,-9.0,91,76,47,0.00,40.00,2,1,5,0.00
2013-1-23,37.0,21.9,9.0,28.0,16.1,6.0,96,79,54,0.00,40.00,3,2,6,0.00
2013-1-24,40.0,31.3,22.0,34.0,25.3,19.0,99,80,52,0.00,40.00,6,3,18,0.16
2013-1-25,43.0,32.9,23.0,34.0,29.6,21.0,99,88,66,0.00,40.00,4,2,9,0.02
2013-1-26,41.0,31.8,20.0,35.0,28.6,19.0,99,89,63,0.00,40.00,4,2,10,0.22
2013-1-27,36.0,26.5,15.0,25.0,19.9,13.0,94,78,49,0.00,40.00,6,3,15,0.01
2013-1-28,31.0,22.7,14.0,25.0,18.8,12.0,94,85,60,0.00,40.00,5,2,9,0.01
2013-1-29,34.0,22.1,11.0,23.0,16.9,8.0,92,81,56,0.00,40.00,4,2,11,0.11
2013-1-30,37.0,31.0,22.0,28.0,25.3,20.0,94,80,65,0.00,40.00,6,3,16,0.09
2013-1-31,39.0,34.4,30.0,34.0,31.4,28.0,96,89,75,0.00,40.00,3,2,9,0.06
2013-2-1,43.0,32.9,24.0,33.0,28.4,23.0,99,85,53,0.00,40.00,6,2,14,0.10
2013-2-2,48.0,27.5,13.0,27.0,19.9,10.0,96,77,40,0.00,40.00,4,2,6,0.08
2013-2-3,42.0,26.8,10.0,32.0,20.7,7.0,94,80,50,0.00,40.00,4,2,9,0.00
2013-2-4,40.0,34.4,27.0,29.0,26.5,25.0,93,74,58,0.00,40.00,7,4,16,0.00
2013-2-5,47.0,33.3,25.0,31.0,26.5,24.0,96,78,47,0.00,40.00,7,3,14,0.00
2013-2-6,43.0,32.9,23.0,31.0,25.8,22.0,94,75,56,0.00,40.00,7,3,15,0.06
2013-2-7,38.0,26.1,16.0,30.0,21.4,14.0,95,84,55,0.00,40.00,4,2,8,0.04
2013-2-8,43.0,26.2,12.0,29.0,19.2,9.0,93,77,45,0.00,40.00,4,2,11,0.00
2013-2-9,31.0,21.7,8.0,24.0,17.6,4.0,94,84,67,0.00,40.00,4,2,10,0.00
2013-2-10,41.0,25.3,18.0,26.0,20.0,16.0,95,82,48,0.00,40.00,4,2,9,0.01
2013-2-11,31.0,22.8,7.0,24.0,17.7,3.0,92,81,66,0.00,40.00,3,2,7,0.01
2013-2-12,36.0,31.3,27.0,28.0,25.2,23.0,93,79,61,0.00,40.00,7,3,18,0.00
2013-2-13,44.0,36.3,24.0,33.0,26.3,19.0,96,69,39,0.00,40.00,7,3,21,0.11
2013-2-14,43.0,28.0,15.0,26.0,18.8,13.0,93,72,35,0.00,40.00,7,3,16,0.08
2013-2-15,45.0,28.2,11.0,27.0,20.4,8.0,94,75,46,0.00,40.00,5,2,10,0.00
2013-2-16,44.0,29.1,13.0,34.0,24.7,10.0,94,84,57,0.00,40.00,5,2,11,0.04
2013-2-17,36.0,29.7,22.0,30.0,25.6,21.0,94,84,72,0.00,40.00,6,3,12,0.10
2013-2-18,40.0,23.9,3.0,22.0,15.4,-1.0,95,73,42,0.00,40.00,5,2,11,0.01
2013-2-19,38.0,25.9,15.0,24.0,19.0,13.0,94,77,42,0.00,40.00,5,2,10,0.00
2013-2-20,35.0,27.6,14.0,26.0,20.9,11.0,96,78,42,0.00,40.00,6,2,13,0.02
2013-2-21,30.0,20.0,3.0,25.0,15.7,-1.0,95,84,64,0.00,40.00,3,2,7,0.02
2013-2-22,34.0,28.7,22.0,29.0,25.4,21.0,96,88,67,0.00,40.00,5,3,10,0.10
2013-2-23,35.0,28.6,19.0,29.0,19.5,15.0,94,70,49,0.00,40.00,8,4,19,0.07
2013-2-24,33.0,23.6,4.0,23.0,15.9,0.0,89,74,53,0.00,40.00,7,4,14,0.03
2013-2-25,36.0,29.9,23.0,25.0,21.1,19.0,93,70,53,0.00,40.00,9,3,18,0.00
2013-2-26,34.0,27.8,23.0,25.0,21.0,16.0,95,77,52,0.00,40.00,6,2,12,0.01
2013-2-27,40.0,26.5,17.0,23.0,19.0,14.0,91,75,49,0.00,40.00,5,2,15,0.01
2013-2-28,40.0,30.6,21.0,29.0,24.7,19.0,93,80,54,0.00,40.00,4,2,7,0.00
2013-3-1,47.0,39.1,31.0,37.0,34.1,28.0,99,83,64,0.00,40.00,9,4,19,0.01
2013-3-2,53.0,41.6,28.0,36.0,31.4,26.0,98,71,39,0.00,40.00,6,3,12,0.01
2013-3-3,41.0,31.2,17.0,34.0,23.0,13.0,98,74,44,0.00,40.00,10,5,25,0.09
2013-3-4,36.0,24.0,0.0,20.0,11.6,-5.0,92,61,39,0.00,40.00,5,3,11,0.10
2013-3-5,36.0,25.6,1.0,24.0,13.9,-3.0,88,64,41,0.00,40.00,5,2,12,0.09
2013-3-6,42.0,28.4,19.0,34.0,24.6,17.0,97,86,67,0.00,40.00,4,2,9,0.08
2013-3-7,43.0,32.5,20.0,31.0,26.5,18.0,98,80,53,0.00,40.00,6,3,17,0.16
2013-3-8,46.0,30.3,8.0,27.0,18.2,4.0,93,65,34,0.00,40.00,5,2,13,0.06
2013-3-9,48.0,33.0,16.0,25.0,21.7,14.0,93,67,37,0.00,40.00,6,3,13,0.00
2013-3-10,44.0,33.0,15.0,27.0,21.6,13.0,94,66,41,0.00,40.00,7,4,15,0.00
2013-3-11,45.0,35.2,23.0,27.0,20.3,10.0,89,58,26,0.00,40.00,8,4,19,0.00
2013-3-12,42.0,32.5,22.0,37.0,28.4,19.0,90,84,76,0.00,40.00,4,2,14,0.08
2013-3-13,52.0,42.6,31.0,37.0,34.5,29.0,98,75,51,0.00,40.00,5,3,14,0.02
2013-3-14,56.0,42.4,29.0,36.0,30.9,25.0,99,69,35,0.00,40.00,5,3,15,0.00
2013-3-15,51.0,45.0,31.0,33.0,29.5,24.0,92,55,39,0.00,40.00,8,5,24,0.00
2013-3-16,44.0,35.7,27.0,34.0,30.6,27.0,99,83,61,0.00,40.00,7,4,16,0.01
2013-3-17,39.0,31.1,20.0,31.0,21.7,16.0,97,70,47,0.00,40.00,9,5,22,0.17
2013-3-18,34.0,27.0,17.0,24.0,18.0,15.0,97,70,51,0.00,40.00,7,4,18,0.02
2013-3-19,43.0,28.3,5.0,25.0,12.6,1.0,90,58,24,0.00,40.00,5,3,11,0.02
2013-3-20,44.0,33.0,24.0,38.0,27.2,18.0,93,80,65,0.00,40.00,7,3,19,0.18
2013-3-21,36.0,30.4,21.0,29.0,19.4,14.0,93,66,41,0.00,40.00,8,5,19,0.07
2013-3-22,37.0,23.9,10.0,23.0,16.3,6.0,95,75,33,0.00,40.00,6,3,16,0.01
2013-3-23,36.0,23.0,11.0,23.0,15.9,8.0,93,76,44,0.00,40.00,6,2,12,0.16
2013-3-24,36.0,21.9,-1.0,20.0,10.9,-6.0,91,66,35,0.00,40.00,6,3,9,0.06
2013-3-25,46.0,27.1,4.0,20.0,13.2,0.0,91,62,27,0.00,40.00,5,2,9,0.06
2013-3-26,49.0,31.3,14.0,25.0,19.2,11.0,93,67,32,0.00,40.00,5,2,11,0.00
2013-3-27,51.0,32.1,20.0,32.0,24.3,18.0,95,77,42,0.00,40.00,5,2,10,0.00
2013-3-28,50.0,43.2,31.0,38.0,33.4,29.0,95,70,49,0.00,40.00,5,3,10,0.00
2013-3-29,54.0,39.0,29.0,40.0,32.4,25.0,99,81,45,0.00,40.00,7,3,16,0.02
2013-3-30,59.0,40.0,22.0,38.0,24.8,-99.9,97,66,26,0.00,40.00,6,3,18,0.02
2013-3-31,60.0,41.3,23.0,34.0,28.2,22.0,97,67,32,0.00,40.00,6,3,12,0.01
2013-4-1,64.0,41.9,23.0,34.0,27.2,22.0,96,65,23,0.00,40.00,6,3,9,0.00
2013-4-2,63.0,44.5,24.0,38.0,31.5,23.0,96,65,38,0.00,40.00,9,4,19,0.00
2013-4-3,57.0,45.7,28.0,40.0,32.8,27.0,98,65,38,0.00,40.00,7,4,16,0.00
2013-4-4,58.0,42.8,24.0,46.0,34.7,23.0,99,78,38,0.00,40.00,5,2,16,0.11
2013-4-5,51.0,45.1,40.0,44.0,38.2,35.0,92,77,59,0.00,40.00,7,5,21,0.07
2013-4-6,48.0,38.9,29.0,42.0,33.6,27.0,100,83,52,0.00,40.00,10,4,20,0.09
2013-4-7,42.0,33.6,25.0,37.0,31.2,24.0,98,92,77,0.00,40.00,10,3,20,0.22
2013-4-8,34.0,28.5,22.0,26.0,18.8,14.0,86,68,49,0.00,40.00,11,7,26,0.11
2013-4-9,42.0,29.0,10.0,26.0,17.2,7.0,93,63,43,0.00,40.00,7,3,13,0.04
2013-4-10,45.0,37.3,28.0,42.0,32.3,25.0,100,83,63,0.00,40.00,4,3,12,0.17
2013-4-11,44.0,36.1,26.0,36.0,29.0,25.0,98,78,53,0.00,40.00,8,4,19,0.15
2013-4-12,45.0,33.9,20.0,34.0,25.8,18.0,97,76,45,0.00,40.00,5,2,12,0.04
2013-4-13,36.0,33.5,29.0,34.0,26.2,18.0,98,76,48,0.00,40.00,7,4,23,0.28
2013-4-14,39.0,31.6,26.0,28.0,23.2,10.0,96,73,44,0.00,40.00,11,4,21,0.35
2013-4-15,33.0,27.6,22.0,11.0,8.9,7.0,57,45,34,0.00,40.00,11,7,24,0.04
2013-4-16,37.0,28.5,18.0,14.0,9.1,3.0,80,46,27,0.00,40.00,8,5,19,0.00
2013-4-17,45.0,31.9,10.0,17.0,10.0,3.0,87,45,23,0.00,40.00,7,4,15,0.00
2013-4-18,51.0,39.8,17.0,26.0,22.8,15.0,94,54,35,0.00,40.00,7,4,17,0.00
2013-4-19,51.0,40.6,28.0,39.0,34.0,25.0,97,79,56,0.00,40.00,5,3,12,0.23
2013-4-20,51.0,41.0,31.0,41.0,35.2,30.0,100,82,50,0.00,40.00,9,4,24,0.35
2013-4-21,38.0,29.4,23.0,37.0,23.0,12.0,98,78,60,0.00,40.00,9,5,21,0.62
2013-4-22,42.0,27.6,10.0,19.0,12.9,6.0,88,57,35,0.00,40.00,6,4,20,0.12
2013-4-23,46.0,31.3,16.0,28.0,21.3,14.0,93,70,39,0.00,40.00,6,3,14,0.00
2013-4-24,56.0,39.9,19.0,33.0,23.3,17.0,95,59,28,0.00,40.00,8,4,22,0.00
2013-4-25,61.0,48.7,26.0,32.0,26.9,23.0,95,48,26,0.00,40.00,9,4,21,0.00
2013-4-26,67.0,53.7,27.0,43.0,31.2,26.0,97,49,21,0.00,40.00,8,5,22,0.00
2013-4-27,60.0,53.6,43.0,35.0,29.8,24.0,60,41,25,0.00,40.00,9,6,21,0.00
2013-4-28,53.0,47.4,40.0,40.0,32.7,27.0,87,58,42,0.00,40.00,9,5,20,0.00
2013-4-29,47.0,38.9,30.0,35.0,30.8,24.0,88,74,49,0.00,40.00,10,5,21,0.20
2013-4-30,40.0,28.8,17.0,29.0,22.0,15.0,94,78,40,0.00,40.00,9,3,16,0.07
2013-5-1,48.0,33.3,19.0,30.0,22.4,17.0,95,70,29,0.00,40.00,6,3,16,0.09
2013-5-2,62.0,43.0,20.0,31.0,22.9,18.0,94,53,20,0.00,40.00,6,3,16,0.01
2013-5-3,54.0,45.2,31.0,42.0,36.2,28.0,95,73,48,0.00,40.00,5,3,12,0.06
2013-5-4,61.0,46.6,25.0,37.0,27.5,24.0,97,56,26,0.00,40.00,8,4,16,0.01
2013-5-5,70.0,52.4,26.0,36.0,28.0,22.0,96,49,17,0.00,40.00,5,4,16,0.00
2013-5-6,73.0,55.8,24.0,38.0,31.4,23.0,96,49,20,0.00,40.00,6,3,13,0.00
2013-5-7,72.0,59.6,28.0,41.0,31.9,27.0,97,42,24,0.00,40.00,8,5,21,0.00
2013-5-8,77.0,59.7,29.0,41.0,35.0,26.0,97,45,25,0.00,40.00,6,3,14,0.00
2013-5-9,79.0,63.3,36.0,49.0,38.3,24.0,99,50,14,0.00,40.00,8,3,19,0.05
2013-5-10,74.0,62.9,33.0,37.0,29.4,-99.9,95,35,24,0.00,40.00,7,4,18,0.05
2013-5-11,81.0,65.0,33.0,47.0,37.7,-99.9,99,45,24,0.00,40.00,7,4,17,0.00
2013-5-12,79.0,66.3,39.0,52.0,44.5,38.0,99,50,29,0.00,40.00,8,4,19,0.00
2013-5-13,71.0,59.0,46.0,49.0,44.1,38.0,87,59,40,0.00,40.00,9,5,27,0.15
2013-5-14,56.0,47.9,30.0,38.0,27.5,23.0,86,47,29,0.00,40.00,10,5,26,0.15
2013-5-15,61.0,42.7,23.0,37.0,28.7,22.0,95,64,29,0.00,40.00,6,3,14,0.00
2013-5-16,56.0,42.9,40.0,46.0,26.3,-99.9,98,79,49,0.00,40.00,5,3,12,0.05
2013-5-17,60.0,46.1,30.0,45.0,34.9,-99.9,99,78,42,0.00,40.00,9,3,16,0.39
2013-5-18,58.0,47.5,39.0,49.0,44.4,38.0,100,90,60,0.00,40.00,5,2,13,0.65
2013-5-19,59.0,47.3,36.0,44.0,40.9,36.0,100,81,57,0.00,40.00,7,3,15,0.02
2013-5-20,67.0,51.4,33.0,49.0,41.7,32.0,99,74,42,0.00,40.00,5,3,11,0.00
2013-5-21,70.0,57.6,30.0,50.0,39.9,29.0,99,57,31,0.00,40.00,8,5,29,0.05
2013-5-22,57.0,44.4,32.0,48.0,39.6,32.0,99,84,49,0.00,40.00,6,4,19,0.56
2013-5-23,54.0,40.6,32.0,38.0,33.6,29.0,99,79,41,0.00,40.00,5,3,14,0.91
2013-5-24,58.0,42.0,28.0,39.0,32.7,28.0,98,73,34,0.00,40.00,8,4,21,0.01
2013-5-25,55.0,45.0,28.0,38.0,31.9,27.0,98,63,41,0.00,40.00,6,4,14,0.01
2013-5-26,68.0,49.6,26.0,40.0,32.1,25.0,97,58,26,0.00,40.00,5,3,11,0.00
2013-5-27,60.0,49.5,35.0,53.0,41.5,34.0,99,77,47,0.00,40.00,7,3,14,0.16
2013-5-28,58.0,50.0,43.0,49.0,45.3,42.0,100,85,59,0.00,40.00,5,3,9,0.22
2013-5-29,65.0,49.4,35.0,46.0,39.4,34.0,100,74,37,0.00,40.00,5,2,16,0.12
2013-5-30,56.0,47.4,39.0,45.0,39.5,34.0,99,76,49,0.00,40.00,6,3,15,0.09
2013-5-31,58.0,50.1,30.0,50.0,39.1,30.0,100,69,43,0.00,40.00,6,3,15,0.02
2013-6-1,64.0,49.2,29.0,47.0,37.5,29.0,100,70,34,0.00,40.00,4,2,9,0.02
2013-6-2,63.0,49.5,38.0,45.0,40.9,35.0,99,76,39,0.00,40.00,7,3,16,0.34
2013-6-3,63.0,48.9,38.0,49.0,44.6,38.0,100,87,50,0.00,40.00,8,3,21,0.36
2013-6-6,80.0,62.4,42.0,51.0,45.2,41.0,99,61,28,0.00,40.00,5,3,14,0.00
2013-6-7,74.0,60.1,44.0,53.0,44.9,37.0,99,64,31,0.00,40.00,10,4,22,0.00
2013-6-8,72.0,58.7,36.0,50.0,39.1,33.0,100,56,25,0.00,40.00,6,4,17,0.00
2013-6-9,70.0,57.5,38.0,48.0,34.1,29.0,98,50,22,0.00,40.00,9,5,21,0.00
2013-6-10,75.0,58.8,31.0,43.0,34.4,29.0,99,48,22,0.00,40.00,6,3,16,0.00
2013-6-11,75.0,56.1,36.0,51.0,41.8,34.0,100,65,28,0.00,40.00,5,3,17,0.00
2013-6-12,67.0,54.3,39.0,45.0,40.9,37.0,97,65,36,0.00,40.00,6,4,15,0.02
2013-6-13,63.0,52.1,43.0,48.0,39.5,32.0,98,67,32,0.00,40.00,6,3,15,0.01
2013-6-14,54.0,49.3,33.0,42.0,37.9,33.0,99,67,51,0.00,40.00,9,5,19,0.00
2013-6-15,71.0,61.1,37.0,45.0,37.3,32.0,100,47,24,0.00,40.00,7,4,16,0.00
2013-6-16,78.0,70.1,38.0,46.0,39.3,36.0,100,36,22,0.00,40.00,5,4,12,0.00
2013-6-17,81.0,66.5,42.0,52.0,46.0,40.0,100,54,25,0.00,40.00,5,3,14,0.00
2013-6-18,80.0,66.4,45.0,55.0,49.2,43.0,99,59,32,0.00,40.00,6,4,20,0.20
2013-6-19,54.0,50.7,47.0,54.0,49.3,45.0,100,95,87,0.00,40.00,5,3,12,0.46
2013-6-20,49.0,45.3,43.0,47.0,43.4,38.0,99,93,72,0.00,40.00,6,4,17,0.95
2013-6-21,56.0,55.0,54.0,44.0,42.2,40.0,66,62,57,0.00,40.00,5,4,10,0.05
2013-6-22,66.0,59.4,48.0,48.0,42.6,40.0,100,55,41,0.00,40.00,6,4,14,0.01
2013-6-23,71.0,61.7,39.0,51.0,43.8,39.0,100,56,34,0.00,40.00,5,3,11,0.00
2013-6-24,62.0,54.4,47.0,56.0,51.7,46.0,99,91,80,0.00,40.00,4,2,11,0.36
2013-6-25,66.0,55.4,50.0,54.0,48.8,42.0,100,81,50,0.00,40.00,6,2,16,0.51
2013-6-26,67.0,55.4,41.0,53.0,46.0,41.0,100,75,43,0.00,40.00,6,3,14,0.01
2013-6-27,76.0,61.5,42.0,54.0,48.7,41.0,99,67,40,0.00,40.00,6,3,10,0.01
2013-6-28,85.0,68.9,44.0,57.0,52.9,44.0,100,62,34,0.00,40.00,5,3,13,0.00
2013-7-6,78.0,66.6,43.0,51.0,43.5,39.0,99,49,25,0.00,40.00,6,3,19,0.00
2013-7-7,81.0,71.7,42.0,53.0,44.5,38.0,98,42,22,0.00,40.00,6,4,13,0.00
2013-7-8,74.0,64.1,45.0,59.0,48.8,40.0,100,62,31,0.00,40.00,7,4,19,0.09
2013-7-9,81.0,71.2,40.0,52.0,44.1,39.0,99,42,25,0.00,40.00,5,3,9,0.01
2013-7-10,88.0,78.0,69.0,51.0,40.2,-99.9,53,29,23,0.00,40.00,6,4,15,0.00
2013-7-11,77.0,72.8,62.0,45.0,35.6,25.0,39,26,22,0.00,40.00,8,6,17,0.00
2013-7-12,75.0,69.3,51.0,41.0,33.3,25.0,64,27,20,0.00,40.00,7,5,16,0.00
2013-7-13,74.0,65.8,46.0,44.0,34.7,32.0,72,35,22,0.00,40.00,6,4,13,0.00
2013-7-14,81.0,73.8,51.0,46.0,36.8,33.0,84,29,18,0.00,40.00,5,4,12,0.00
2013-7-15,83.0,78.5,67.0,45.0,36.0,31.0,44,23,16,0.00,40.00,7,5,15,0.00
2013-7-16,82.0,75.6,69.0,47.0,45.5,43.0,41,35,29,0.00,40.00,8,6,20,0.00
2013-7-22,87.0,83.2,76.0,42.0,39.2,35.0,28,21,16,0.00,40.00,7,5,17,0.00
2013-7-23,90.0,85.5,71.0,50.0,38.4,32.0,48,21,13,0.00,40.00,6,4,12,0.00
2013-7-24,92.0,85.0,58.0,49.0,38.4,33.0,71,22,13,0.00,40.00,7,4,12,0.00
2013-7-25,90.0,74.6,55.0,52.0,43.7,33.0,69,38,13,0.00,40.00,6,4,13,0.00
2013-7-26,92.0,85.6,72.0,48.0,32.1,25.0,42,16,9,0.00,40.00,7,4,15,0.00
2013-7-27,83.0,78.7,52.0,44.0,32.5,28.0,73,19,15,0.00,40.00,7,6,17,0.00
2013-7-28,82.0,77.1,63.0,42.0,34.4,30.0,37,22,16,0.00,40.00,7,4,14,0.00
2013-7-29,78.0,65.2,55.0,47.0,41.5,34.0,60,43,23,0.00,40.00,8,4,20,0.00
2013-7-30,80.0,69.0,44.0,51.0,43.1,37.0,93,45,23,0.00,40.00,7,4,12,0.00
2013-7-31,85.0,76.0,50.0,48.0,40.0,34.0,85,31,17,0.00,40.00,7,4,13,0.00
2013-8-1,74.0,64.4,49.0,53.0,47.1,35.0,82,56,24,0.00,40.00,6,3,12,0.00
2013-8-2,58.0,54.4,51.0,54.0,52.3,50.0,99,93,81,0.00,40.00,4,2,13,0.84
2013-8-3,72.0,56.6,45.0,55.0,49.2,45.0,100,80,44,0.00,40.00,6,2,12,0.29
2013-8-4,78.0,65.9,40.0,55.0,48.6,40.0,100,58,35,0.00,40.00,5,3,11,0.00
2013-8-5,80.0,68.7,49.0,54.0,49.5,42.0,100,54,26,0.00,40.00,8,4,18,0.00
2013-8-6,82.0,73.1,50.0,52.0,46.7,40.0,100,44,24,0.00,40.00,2,1,10,0.00
2013-8-7,85.0,69.8,47.0,54.0,45.9,37.0,94,50,18,0.00,40.00,5,4,14,0.00
2013-8-8,85.0,75.6,54.0,54.0,50.1,43.0,97,44,28,0.00,40.00,7,4,16,0.00
2013-8-9,85.0,71.6,53.0,57.0,51.1,47.0,86,51,29,0.00,40.00,7,4,19,0.00
2013-8-10,87.0,73.8,51.0,55.0,47.7,40.0,91,45,20,0.00,40.00,6,4,17,0.00
2013-8-11,84.0,68.7,52.0,56.0,50.7,43.0,92,56,31,0.00,40.00,5,3,11,0.00
2013-8-12,87.0,71.2,51.0,55.0,46.8,39.0,88,47,19,0.00,40.00,6,3,19,0.01
2013-8-13,83.0,64.3,51.0,61.0,50.4,-99.9,100,67,35,0.00,40.00,5,3,13,0.17
2013-8-14,86.0,72.0,47.0,52.0,45.7,39.0,99,46,19,0.00,40.00,5,3,9,0.00
2013-8-15,90.0,74.5,59.0,52.0,32.9,-99.9,68,28,17,0.00,40.00,6,4,12,0.00
2013-8-16,87.0,77.3,66.0,54.0,39.6,-99.9,59,30,22,0.00,40.00,7,5,14,0.00
2013-8-18,81.0,74.1,51.0,51.0,42.4,37.0,99,36,21,0.00,40.00,8,6,21,0.00
2013-8-19,82.0,70.7,49.0,48.0,35.6,-99.9,96,35,24,0.00,40.00,9,5,17,0.00
2013-8-20,81.0,73.1,49.0,48.0,35.7,29.0,95,29,17,0.00,40.00,7,5,19,0.00
2013-8-21,83.0,74.6,40.0,43.0,32.9,25.0,93,25,12,0.00,40.00,6,4,9,0.00
2013-8-22,82.0,74.8,59.0,46.0,39.4,33.0,62,30,18,0.00,40.00,5,3,12,0.00
2013-8-23,79.0,66.4,53.0,59.0,51.3,45.0,99,64,33,0.00,40.00,6,3,13,0.02
2013-8-24,83.0,72.1,46.0,55.0,41.2,-99.9,99,39,20,0.00,40.00,5,4,11,0.00
2013-8-25,84.0,70.4,51.0,54.0,46.1,38.0,83,46,24,0.00,40.00,8,4,22,0.02
2013-8-26,79.0,62.9,46.0,55.0,47.8,43.0,99,64,30,0.00,40.00,5,3,21,0.19
2013-8-27,78.0,65.9,44.0,46.0,45.4,44.0,99,54,32,0.00,40.00,5,3,8,0.00
2013-8-28,79.0,73.3,59.0,55.0,52.2,49.0,79,49,37,0.00,40.00,7,4,13,0.00
2013-8-29,85.0,65.6,47.0,63.0,55.9,47.0,99,77,33,0.00,40.00,5,3,14,0.15
2013-8-30,73.0,63.6,45.0,56.0,46.9,43.0,100,59,35,0.00,40.00,8,4,16,0.01
2013-8-31,80.0,71.2,39.0,48.0,37.6,-99.9,99,33,22,0.00,40.00,5,4,9,0.00
2013-9-1,88.0,78.4,39.0,50.0,43.9,39.0,99,33,19,0.00,40.00,5,4,9,0.00
2013-9-2,81.0,72.8,56.0,57.0,47.5,42.0,90,44,26,0.00,40.00,7,4,17,0.01
2013-9-3,70.0,63.9,48.0,58.0,54.7,48.0,99,74,59,0.00,40.00,4,2,7,0.01
2013-9-4,85.0,75.0,45.0,57.0,53.1,45.0,99,51,28,0.00,40.00,6,4,10,0.00
2013-9-5,78.0,64.9,55.0,61.0,57.4,50.0,99,78,52,0.00,40.00,7,3,14,0.11
2013-9-6,78.0,63.0,52.0,63.0,52.8,40.0,100,75,35,0.00,40.00,7,3,14,0.02
2013-9-7,75.0,59.9,44.0,51.0,45.2,-99.9,99,63,39,0.00,40.00,6,3,12,0.01
2013-9-8,66.0,53.8,46.0,58.0,50.3,45.0,99,89,60,0.00,40.00,7,2,15,0.26
2013-9-9,75.0,61.2,45.0,57.0,50.8,44.0,99,73,41,0.00,40.00,5,3,9,0.08
2013-9-10,82.0,68.6,42.0,55.0,49.0,42.0,99,56,26,0.00,40.00,6,3,10,0.00
2013-9-11,84.0,75.8,56.0,56.0,47.3,40.0,98,41,22,0.00,40.00,5,4,12,0.00
2013-9-12,86.0,68.1,41.0,51.0,44.6,40.0,98,49,24,0.00,40.00,5,3,28,0.00
2013-9-13,86.0,74.1,49.0,55.0,47.8,45.0,99,44,26,0.00,40.00,5,3,13,0.00
2013-9-14,82.0,73.2,54.0,55.0,41.5,-99.9,82,35,25,0.00,40.00,7,4,16,0.00
2013-9-15,81.0,71.0,50.0,48.0,44.6,40.0,73,41,29,0.00,40.00,6,4,13,0.00
2013-9-16,75.0,63.8,44.0,62.0,49.5,42.0,98,63,42,0.00,40.00,8,4,18,0.03
2013-9-17,69.0,59.0,42.0,50.0,43.2,39.0,98,60,33,0.00,40.00,6,3,12,0.33
2013-9-18,50.0,47.7,44.0,50.0,46.8,43.0,99,97,92,0.00,40.00,4,2,9,1.63
2013-9-19,62.0,47.1,34.0,48.0,40.2,34.0,99,81,41,0.00,40.00,4,2,7,0.08
2013-9-20,71.0,51.3,33.0,47.0,39.3,33.0,99,71,30,0.00,40.00,5,3,10,0.01
2013-9-21,64.0,52.1,36.0,46.0,39.1,-99.9,99,68,42,0.00,40.00,6,3,11,0.01
2013-9-22,58.0,46.6,31.0,47.0,37.7,31.0,98,74,53,0.00,40.00,7,3,13,0.01
2013-9-23,53.0,47.9,43.0,42.0,40.0,38.0,93,74,62,0.00,40.00,7,4,17,0.07
2013-9-24,50.0,45.6,37.0,45.0,40.8,36.0,97,84,63,0.00,40.00,6,3,12,0.05
2013-9-25,48.0,41.2,35.0,43.0,39.1,34.0,99,93,75,0.00,40.00,5,3,10,0.31
2013-9-26,51.0,39.4,28.0,38.0,29.2,25.0,98,73,39,0.00,40.00,6,2,12,0.01
2013-9-27,49.0,36.4,24.0,41.0,22.7,-99.9,97,72,52,0.00,40.00,6,3,15,0.01
2013-9-28,56.0,46.7,40.0,45.0,38.0,-99.9,89,74,61,0.00,40.00,8,5,24,0.01
2013-9-29,53.0,47.0,42.0,44.0,38.5,35.0,87,73,58,0.00,40.00,7,5,17,0.14
2013-9-30,44.0,42.2,37.0,41.0,36.4,32.0,97,80,66,0.00,40.00,9,5,19,0.40
2013-10-1,40.0,36.6,33.0,36.0,34.5,32.0,98,92,86,0.00,40.00,3,2,9,0.32
2013-10-2,49.0,37.0,28.0,36.0,31.3,27.0,98,83,50,0.00,40.00,4,2,10,0.05
2013-10-3,47.0,39.8,26.0,32.0,25.2,23.0,97,58,38,0.00,40.00,7,4,17,0.01
2013-10-4,54.0,36.4,19.0,32.0,22.9,17.0,95,66,30,0.00,40.00,4,3,14,0.00
2013-10-5,60.0,38.8,24.0,33.0,27.1,23.0,96,70,31,0.00,40.00,5,2,9,0.00
2013-10-6,67.0,43.2,25.0,38.0,28.8,24.0,97,67,24,0.00,40.00,4,2,9,0.00
2013-10-7,60.0,41.3,26.0,37.0,29.8,25.0,97,70,29,0.00,40.00,7,4,20,0.03
2013-10-8,46.0,41.4,28.0,40.0,32.0,27.0,97,70,55,0.00,40.00,7,4,14,0.08
2013-10-9,53.0,35.7,24.0,37.0,29.8,23.0,98,83,46,0.00,40.00,4,2,9,0.01
2013-10-10,44.0,34.8,23.0,38.0,31.6,22.0,98,89,69,0.00,40.00,5,2,10,0.01
2013-10-11,49.0,36.3,23.0,37.0,27.2,22.0,98,74,41,0.00,40.00,5,3,12,0.01
2013-10-12,47.0,33.0,24.0,36.0,25.9,-99.9,97,80,45,0.00,40.00,4,2,8,0.00
2013-10-13,49.0,34.5,19.0,34.0,26.8,17.0,96,77,43,0.00,40.00,4,2,10,0.00
2013-10-14,50.0,37.7,24.0,35.0,28.2,23.0,94,72,40,0.00,40.00,4,2,8,0.00
2013-10-15,54.0,32.1,17.0,31.0,22.3,15.0,94,73,31,0.00,40.00,5,2,9,0.00
2013-10-16,44.0,35.1,27.0,37.0,31.3,25.0,97,87,67,0.00,40.00,3,2,5,0.01
2013-10-17,50.0,35.5,25.0,38.0,29.6,24.0,98,82,43,0.00,40.00,4,2,9,0.01
2013-10-18,56.0,34.5,20.0,37.0,26.5,18.0,97,77,40,0.00,40.00,5,2,11,0.00
2013-10-19,55.0,35.9,26.0,39.0,29.2,-99.9,98,82,43,0.00,40.00,4,2,8,0.00
2013-10-20,58.0,37.4,25.0,37.0,30.1,24.0,98,80,40,0.00,40.00,5,2,10,0.00
2013-10-21,61.0,37.7,24.0,42.0,31.3,23.0,98,82,45,0.00,40.00,4,2,8,0.00
2013-10-22,62.0,34.2,24.0,43.0,30.3,23.0,97,88,43,0.00,40.00,5,1,7,0.00
2013-10-23,62.0,43.9,24.0,42.0,35.0,23.0,97,75,44,0.00,40.00,3,2,6,0.00
2013-10-24,62.0,44.6,26.0,41.0,36.1,25.0,97,75,44,0.00,40.00,4,2,7,0.01
2013-10-25,60.0,32.4,23.0,42.0,29.3,22.0,97,90,44,0.00,40.00,4,2,6,0.01
2013-10-26,47.0,33.3,26.0,38.0,26.3,-99.9,97,86,71,0.00,40.00,3,2,5,0.00
2013-10-27,47.0,32.9,22.0,42.0,24.3,13.0,98,75,40,0.00,40.00,19,8,40,0.00
2013-10-28,34.0,28.8,25.0,17.0,10.1,-99.9,64,48,36,0.00,40.00,10,7,30,0.00
2013-10-29,42.0,24.6,11.0,20.0,13.2,8.0,88,65,36,0.00,40.00,4,2,9,0.00
2013-10-30,46.0,28.3,11.0,30.0,17.0,7.0,90,66,38,0.00,40.00,5,3,10,0.00
2013-10-31,43.0,36.1,27.0,31.0,27.4,21.0,94,71,53,0.00,40.00,4,3,13,0.00
2013-11-1,48.0,35.2,21.0,37.0,27.4,20.0,97,76,45,0.00,40.00,6,3,13,0.00
2013-11-2,42.0,32.7,22.0,39.0,28.8,-99.9,98,88,66,0.00,40.00,8,3,18,0.09
2013-11-3,36.0,32.4,27.0,30.0,25.6,23.0,95,77,58,0.00,40.00,8,4,18,0.02
2013-11-4,35.0,27.9,20.0,28.0,22.4,18.0,95,81,60,0.00,40.00,4,2,9,0.03
2013-11-5,31.0,27.0,22.0,27.0,21.8,16.0,94,81,54,0.00,40.00,5,3,10,0.01
2013-11-6,39.0,28.6,20.0,30.0,25.9,18.0,97,90,69,0.00,40.00,2,2,5,0.08
2013-11-7,38.0,30.1,20.0,38.0,28.7,18.0,99,94,81,0.00,40.00,5,2,16,0.21
2013-11-8,40.0,35.1,30.0,32.0,30.6,29.0,98,84,67,0.00,40.00,7,3,17,0.04
2013-11-9,44.0,32.3,27.0,32.0,26.0,-99.9,97,82,48,0.00,40.00,4,2,8,0.01
2013-11-10,36.0,33.3,31.0,35.0,32.5,29.0,99,96,90,0.00,40.00,3,1,7,0.32
2013-11-11,38.0,34.4,32.0,37.0,33.8,32.0,99,98,92,0.00,40.00,2,1,4,0.18
2013-11-12,39.0,36.1,35.0,37.0,34.8,33.0,99,95,88,0.00,40.00,3,2,7,0.01
2013-11-13,46.0,39.5,33.0,38.0,33.6,30.0,99,80,62,0.00,40.00,6,3,16,0.02
2013-11-14,43.0,37.2,29.0,32.0,29.6,24.0,95,75,59,0.00,40.00,5,3,11,0.00
2013-11-15,37.0,33.5,30.0,28.0,25.7,23.0,90,73,58,0.00,40.00,7,4,19,0.00
2013-11-16,34.0,30.0,21.0,31.0,26.1,-99.9,95,88,75,0.00,40.00,5,3,12,0.09
2013-11-17,40.0,30.9,26.0,31.0,25.3,20.0,96,81,57,0.00,40.00,6,3,16,0.12
2013-11-18,42.0,38.0,34.0,33.0,30.3,28.0,87,74,62,0.00,40.00,7,4,15,0.14
2013-11-19,44.0,39.3,34.0,37.0,33.9,30.0,93,81,61,0.00,40.00,6,4,16,0.12
2013-11-20,35.0,27.0,7.0,32.0,13.7,-9.0,93,60,21,0.00,40.00,8,4,14,0.06
2013-11-21,29.0,12.3,1.0,6.0,2.1,-4.0,84,67,33,0.00,40.00,4,2,8,0.01
2013-11-22,34.0,14.1,4.0,11.0,5.1,-1.0,86,71,34,0.00,40.00,3,2,6,0.00
2013-11-23,34.0,12.8,4.0,17.0,5.6,-99.9,87,78,45,0.00,40.00,4,2,7,0.00
2013-11-24,36.0,19.4,10.0,24.0,13.8,6.0,90,80,49,0.00,40.00,3,2,6,0.00
2013-11-25,36.0,22.6,10.0,26.0,17.9,6.0,93,83,56,0.00,40.00,4,2,6,0.00
2013-11-26,35.0,21.7,11.0,25.0,17.7,8.0,95,85,62,0.00,40.00,2,1,5,0.00
2013-11-27,36.0,19.7,12.0,27.0,17.1,9.0,94,90,70,0.00,40.00,3,2,5,0.00
2013-11-28,33.0,21.2,17.0,26.0,19.0,15.0,96,91,71,0.00,40.00,3,2,5,0.00
2013-11-29,29.0,23.5,17.0,28.0,21.7,15.0,97,93,91,0.00,40.00,3,2,5,0.00
2013-11-30,37.0,31.8,29.0,35.0,29.6,-99.9,98,95,84,0.00,40.00,3,2,9,0.03
2013-12-1,34.0,32.6,32.0,33.0,32.2,32.0,99,98,95,0.00,40.00,2,1,7,0.29
2013-12-2,35.0,27.6,11.0,35.0,21.7,5.0,99,79,52,0.00,40.00,9,4,22,0.15
2013-12-3,17.0,8.5,-1.0,5.0,-2.4,-6.0,81,61,45,0.00,40.00,9,4,19,0.01
2013-12-4,18.0,3.6,-6.0,1.0,-5.1,-12.0,82,69,37,0.00,40.00,4,2,11,0.01
2013-12-5,13.0,0.5,-9.0,0.0,-7.5,-15.0,77,69,52,0.00,40.00,7,3,16,0.01
2013-12-6,3.0,-2.3,-8.0,-10.0,-17.2,-23.0,58,48,36,0.00,40.00,8,6,22,0.00
2013-12-7,6.0,-7.2,-19.0,-14.0,-21.6,-99.9,69,52,33,0.00,40.00,5,3,11,0.00
2013-12-8,7.0,-2.6,-17.0,-3.0,-10.6,-25.0,76,68,52,0.00,40.00,3,2,7,0.00
2013-12-9,11.0,5.8,-6.0,7.0,0.1,-12.0,85,77,68,0.00,40.00,4,2,7,0.00
2013-12-10,24.0,17.8,11.0,18.0,14.4,7.0,91,86,78,0.00,40.00,2,1,5,0.00
2013-12-11,27.0,21.7,18.0,21.0,18.2,16.0,92,86,76,0.00,40.00,4,2,9,0.00
2013-12-12,36.0,25.2,12.0,27.0,21.9,9.0,95,88,70,0.00,40.00,2,2,5,0.04
2013-12-13,36.0,28.6,22.0,29.0,25.7,20.0,96,89,75,0.00,40.00,3,2,8,0.04
2013-12-14,39.0,31.7,24.0,35.0,27.8,-99.9,97,88,74,0.00,40.00,5,3,13,0.13
2013-12-15,43.0,36.7,26.0,32.0,28.3,23.0,97,72,60,0.00,40.00,5,3,17,0.19
2013-12-16,44.0,36.0,20.0,30.0,26.2,19.0,95,68,50,0.00,40.00,8,4,18,0.02
2013-12-17,48.0,29.2,18.0,32.0,19.5,16.0,94,73,32,0.00,40.00,7,3,17,0.00
2013-12-18,41.0,36.5,29.0,28.0,25.6,20.0,92,65,42,0.00,40.00,6,4,15,0.00
2013-12-19,29.0,14.6,-1.0,26.0,7.0,-6.0,90,73,47,0.00,40.00,5,2,12,0.06
2013-12-20,20.0,14.9,5.0,16.0,11.5,1.0,90,86,79,0.00,40.00,4,2,8,0.01
2013-12-21,28.0,19.4,15.0,20.0,14.9,-99.9,92,85,68,0.00,40.00,2,1,4,0.00
2013-12-22,39.0,25.1,17.0,27.0,21.2,15.0,94,86,62,0.00,40.00,3,1,6,0.17
2013-12-23,38.0,30.5,23.0,34.0,28.9,22.0,97,94,83,0.00,40.00,5,2,15,0.19
2013-12-24,34.0,29.7,20.0,31.0,25.0,17.0,96,83,67,0.00,40.00,4,3,12,0.11
2013-12-25,32.0,24.7,15.0,24.0,20.9,10.0,94,86,66,0.00,40.00,3,2,6,0.07
2013-12-26,38.0,27.4,20.0,33.0,25.1,18.0,98,91,74,0.00,40.00,3,2,6,0.02
2013-12-27,42.0,33.4,19.0,33.0,27.7,17.0,96,81,54,0.00,40.00,7,2,17,0.07
2013-12-28,39.0,31.8,27.0,28.0,21.9,-99.9,84,70,52,0.00,40.00,4,2,10,0.02
2013-12-29,33.0,27.3,20.0,26.0,21.9,18.0,95,81,62,0.00,40.00,4,2,10,0.00
2013-12-30,36.0,30.0,20.0,31.0,26.0,18.0,97,85,68,0.00,40.00,3,2,10,0.00
2013-12-31,38.0,33.4,25.0,35.0,29.6,24.0,97,86,73,0.00,40.00,6,3,14,0.04
2014-1-1,38.0,26.7,19.0,25.0,21.0,17.0,94,81,57,0.00,40.00,4,2,11,0.01
2014-1-2,39.0,29.7,19.0,33.0,25.1,17.0,95,84,58,0.00,40.00,4,2,13,0.07